Location: Betra
(48.4113°N, 8.6634°E)
Time: 18:01:32
(UTC+00:00)

ADEOS II - Pass Details

Date: 23 May 2024
Orbit: 795 x 798 km, 98.7° (Epoch: 16 June)

Event Time Altitude Azimuth Distance (km) Brightness Sun altitude
Rises 02:52:21 0° 7° (N) 3,313 6.1 -6.5°
Reaches altitude 10° 02:54:52 10° 359° (N) 2,378 5.2 -6.2°
Maximum altitude 02:59:31 33° 296° (WNW) 1,315 3.1 -5.6°
Drops below altitude 10° 03:04:08 10° 234° (SW) 2,364 3.9 -5.0°
Enters shadow 03:05:07 - 230° (SW) 2,722 4.1 -4.9°
